TAM3079 SBFL-SBSP

Flight info

Callsign TAM3079
Flight time 0h 47m
Altitude 33000
Route UBROS UM540 ANISE
Aircraft A320/M-SDE3FGHIRWY/LB1

Departure

Time 2026-04-25 16:30
Airport Hercílio Luz International Airport (SBFL)

Arrival

Time 2026-04-25 17:17
Airport Congonhas–Deputado Freitas Nobre Airport (SBSP)
Time Latitude Longitude Altitude Speed Heading
2026-04-25 15:53 -27.67160 -48.54558 27 ft 0 kts 30°
2026-04-25 16:18 -27.67161 -48.54558 27 ft 0 kts 30°
2026-04-25 16:18 -27.67172 -48.54566 28 ft 2 kts 32°
2026-04-25 16:19 -27.67184 -48.54574 28 ft 2 kts 31°
2026-04-25 16:19 -27.67194 -48.54581 28 ft 1 kts 18°
2026-04-25 16:19 -27.67200 -48.54584 27 ft 1 kts 345°
2026-04-25 16:20 -27.67209 -48.54578 27 ft 1 kts 307°
2026-04-25 16:20 -27.67213 -48.54574 27 ft 1 kts 305°
2026-04-25 16:20 -27.67215 -48.54569 27 ft 0 kts 304°
2026-04-25 16:22 -27.67214 -48.54571 27 ft 2 kts 304°
2026-04-25 16:22 -27.67185 -48.54608 27 ft 8 kts 325°
2026-04-25 16:23 -27.67134 -48.54618 27 ft 7 kts
2026-04-25 16:23 -27.67091 -48.54598 27 ft 6 kts 29°
2026-04-25 16:23 -27.67054 -48.54591 27 ft 6 kts 342°
2026-04-25 16:23 -27.67024 -48.54635 27 ft 7 kts 301°
2026-04-25 16:24 -27.67000 -48.54680 27 ft 6 kts 301°
2026-04-25 16:24 -27.66979 -48.54719 27 ft 5 kts 301°
2026-04-25 16:24 -27.66962 -48.54752 27 ft 4 kts 301°
2026-04-25 16:24 -27.66948 -48.54780 27 ft 4 kts 301°
2026-04-25 16:25 -27.66936 -48.54802 27 ft 3 kts 301°
2026-04-25 16:25 -27.66933 -48.54808 27 ft 3 kts 301°
2026-04-25 16:25 -27.66921 -48.54831 27 ft 1 kts 300°
2026-04-25 16:25 -27.66918 -48.54837 27 ft 0 kts 300°
2026-04-25 16:26 -27.66917 -48.54837 27 ft 0 kts 300°
2026-04-25 16:26 -27.66917 -48.54838 27 ft 1 kts 300°
2026-04-25 16:26 -27.66896 -48.54875 27 ft 8 kts 303°
2026-04-25 16:26 -27.66868 -48.54925 27 ft 7 kts 303°
2026-04-25 16:27 -27.66844 -48.54968 27 ft 6 kts 301°
2026-04-25 16:27 -27.66812 -48.55028 27 ft 11 kts 301°
2026-04-25 16:27 -27.66762 -48.55102 27 ft 11 kts 324°
2026-04-25 16:27 -27.66706 -48.55122 27 ft 7 kts 347°
2026-04-25 16:28 -27.66674 -48.55130 27 ft 7 kts 347°
2026-04-25 16:28 -27.66630 -48.55139 27 ft 8 kts 358°
2026-04-25 16:28 -27.66586 -48.55093 28 ft 9 kts 102°
2026-04-25 16:28 -27.66593 -48.55080 28 ft 0 kts 126°
2026-04-25 16:29 -27.66603 -48.55062 30 ft 16 kts 123°
2026-04-25 16:29 -27.66808 -48.54685 27 ft 93 kts 121°
2026-04-25 16:29 -27.67251 -48.53863 27 ft 150 kts 121°
2026-04-25 16:29 -27.67838 -48.52756 306 ft 175 kts 123°
2026-04-25 16:30 -27.68467 -48.51561 914 ft 179 kts 121°
2026-04-25 16:30 -27.69088 -48.50362 1654 ft 175 kts 121°
2026-04-25 16:30 -27.69659 -48.49167 2415 ft 173 kts 108°
2026-04-25 16:30 -27.69556 -48.47837 3076 ft 175 kts 62°
2026-04-25 16:31 -27.68708 -48.46851 3529 ft 184 kts 27°
2026-04-25 16:31 -27.67513 -48.46113 3830 ft 207 kts 26°
2026-04-25 16:31 -27.66179 -48.45288 4158 ft 229 kts 26°
2026-04-25 16:31 -27.64764 -48.44402 4851 ft 235 kts 26°
2026-04-25 16:32 -27.63315 -48.43486 5529 ft 243 kts 24°
2026-04-25 16:32 -27.61823 -48.42536 6245 ft 248 kts 24°
2026-04-25 16:32 -27.60311 -48.41569 6989 ft 251 kts 24°
2026-04-25 16:32 -27.58789 -48.40593 7752 ft 253 kts 24°
2026-04-25 16:33 -27.57257 -48.39610 8529 ft 254 kts 24°
2026-04-25 16:33 -27.55734 -48.38631 9312 ft 256 kts 24°
2026-04-25 16:33 -27.54172 -48.37671 10084 ft 255 kts 18°
2026-04-25 16:33 -27.52456 -48.36878 10399 ft 278 kts 16°
2026-04-25 16:34 -27.50579 -48.36049 10678 ft 302 kts 16°
2026-04-25 16:34 -27.48545 -48.35160 10932 ft 325 kts 16°
2026-04-25 16:34 -27.46374 -48.34207 11326 ft 342 kts 17°
2026-04-25 16:34 -27.44135 -48.33211 11982 ft 348 kts 17°
2026-04-25 16:35 -27.41866 -48.32193 12690 ft 354 kts 17°
2026-04-25 16:35 -27.39564 -48.31160 13393 ft 358 kts 16°
2026-04-25 16:35 -27.37231 -48.30115 14046 ft 363 kts 16°
2026-04-25 16:35 -27.34860 -48.29055 14650 ft 368 kts 16°
2026-04-25 16:36 -27.32469 -48.27987 15264 ft 372 kts 16°
2026-04-25 16:36 -27.31669 -48.27629 15468 ft 373 kts 16°
2026-04-25 16:36 -27.27620 -48.25821 16476 ft 380 kts 16°
2026-04-25 16:36 -27.25142 -48.24717 17084 ft 384 kts 16°
2026-04-25 16:37 -27.22646 -48.23608 17683 ft 388 kts 16°
2026-04-25 16:37 -27.20124 -48.22488 18268 ft 392 kts 16°
2026-04-25 16:37 -27.17613 -48.21374 18780 ft 395 kts 16°
2026-04-25 16:37 -27.15050 -48.20236 19297 ft 398 kts 15°
2026-04-25 16:38 -27.12464 -48.19088 19801 ft 401 kts 15°
2026-04-25 16:38 -27.09855 -48.17931 20283 ft 405 kts 15°
2026-04-25 16:38 -27.07226 -48.16765 20753 ft 409 kts 15°
2026-04-25 16:38 -27.04557 -48.15582 21226 ft 413 kts 14°
2026-04-25 16:39 -27.01874 -48.14394 21695 ft 417 kts 14°
2026-04-25 16:39 -26.99160 -48.13190 22165 ft 421 kts 14°
2026-04-25 16:39 -26.96420 -48.11974 22632 ft 425 kts 14°
2026-04-25 16:39 -26.93648 -48.10750 23104 ft 429 kts 14°
2026-04-25 16:40 -26.90857 -48.09519 23549 ft 433 kts 13°
2026-04-25 16:40 -26.88043 -48.08278 23933 ft 436 kts 13°
2026-04-25 16:40 -26.85214 -48.07030 24334 ft 438 kts 13°
2026-04-25 16:40 -26.82371 -48.05772 24721 ft 440 kts 13°
2026-04-25 16:41 -26.79517 -48.04511 25121 ft 442 kts 13°
2026-04-25 16:41 -26.77618 -48.03671 25382 ft 443 kts 13°
2026-04-25 16:41 -26.70874 -48.00691 26268 ft 448 kts 13°
2026-04-25 16:42 -26.67969 -47.99419 26640 ft 449 kts 13°
2026-04-25 16:42 -26.65077 -47.98156 26998 ft 451 kts 13°
2026-04-25 16:42 -26.62144 -47.96873 27357 ft 453 kts 13°
2026-04-25 16:42 -26.59211 -47.95589 27709 ft 455 kts 13°
2026-04-25 16:43 -26.56260 -47.94295 28067 ft 457 kts 13°
2026-04-25 16:43 -26.53295 -47.92993 28416 ft 459 kts 13°
2026-04-25 16:43 -26.50318 -47.91688 28758 ft 461 kts 13°
2026-04-25 16:43 -26.47328 -47.90378 29093 ft 463 kts 13°
2026-04-25 16:44 -26.44325 -47.89064 29419 ft 465 kts 13°
2026-04-25 16:44 -26.41309 -47.87746 29750 ft 466 kts 13°
2026-04-25 16:44 -26.38274 -47.86417 30054 ft 468 kts 14°
2026-04-25 16:44 -26.35234 -47.85087 30317 ft 470 kts 13°
2026-04-25 16:45 -26.32188 -47.83758 30573 ft 472 kts 13°
2026-04-25 16:45 -26.29116 -47.82416 30814 ft 474 kts 14°
2026-04-25 16:45 -26.26078 -47.81093 31042 ft 476 kts 14°
2026-04-25 16:45 -26.22986 -47.79749 31274 ft 478 kts 14°
2026-04-25 16:46 -26.19880 -47.78399 31503 ft 480 kts 14°
2026-04-25 16:46 -26.16773 -47.77045 31831 ft 479 kts 14°
2026-04-25 16:46 -26.13682 -47.75655 32180 ft 482 kts 18°
2026-04-25 16:46 -26.11665 -47.74473 32415 ft 488 kts 24°
2026-04-25 16:47 -26.07944 -47.71596 32815 ft 493 kts 29°
2026-04-25 16:47 -26.05165 -47.69378 32907 ft 488 kts 28°
2026-04-25 16:47 -26.02450 -47.67210 32919 ft 475 kts 28°
2026-04-25 16:47 -25.99785 -47.65088 32894 ft 470 kts 28°
2026-04-25 16:48 -25.94477 -47.60891 32917 ft 466 kts 28°
2026-04-25 16:48 -25.89197 -47.56721 32920 ft 465 kts 28°
2026-04-25 16:49 -25.83921 -47.52554 32917 ft 465 kts 29°
2026-04-25 16:49 -25.78650 -47.48386 32919 ft 465 kts 29°
2026-04-25 16:50 -25.73381 -47.44220 32915 ft 465 kts 28°
2026-04-25 16:50 -25.68145 -47.40089 32903 ft 465 kts 29°
2026-04-25 16:51 -25.62876 -47.35936 32906 ft 464 kts 29°
2026-04-25 16:51 -25.58462 -47.32463 32907 ft 464 kts 29°
2026-04-25 16:52 -25.52353 -47.27660 32907 ft 464 kts 29°
2026-04-25 16:52 -25.47091 -47.23527 32909 ft 464 kts 29°
2026-04-25 16:53 -25.39182 -47.17329 32877 ft 464 kts 29°
2026-04-25 16:53 -25.36536 -47.15259 32136 ft 467 kts 29°
2026-04-25 16:54 -25.33891 -47.13193 31617 ft 464 kts 30°
2026-04-25 16:54 -25.31255 -47.11129 31070 ft 462 kts 30°
2026-04-25 16:54 -25.28637 -47.09081 30528 ft 461 kts 30°
2026-04-25 16:54 -25.26029 -47.07042 29998 ft 459 kts 30°
2026-04-25 16:55 -25.23432 -47.05010 29423 ft 456 kts 30°
2026-04-25 16:55 -25.20852 -47.02994 28930 ft 452 kts 30°
2026-04-25 16:55 -25.18289 -47.00993 28434 ft 448 kts 30°
2026-04-25 16:55 -25.15751 -46.99016 27945 ft 445 kts 30°
2026-04-25 16:56 -25.13219 -46.97086 27460 ft 440 kts 28°
2026-04-25 16:56 -25.10651 -46.95284 26987 ft 435 kts 25°
2026-04-25 16:56 -25.08058 -46.93586 26501 ft 432 kts 24°
2026-04-25 16:56 -25.05459 -46.91944 26018 ft 429 kts 24°
2026-04-25 16:57 -25.02861 -46.90314 25519 ft 428 kts 24°
2026-04-25 16:57 -25.02025 -46.89787 25354 ft 428 kts 24°
2026-04-25 16:57 -24.97721 -46.87037 24496 ft 427 kts 25°
2026-04-25 16:57 -24.95193 -46.85389 23983 ft 427 kts 25°
2026-04-25 16:58 -24.92625 -46.83700 23514 ft 423 kts 25°
2026-04-25 16:58 -24.90157 -46.82073 22847 ft 413 kts 25°
2026-04-25 16:58 -24.87738 -46.80475 22379 ft 398 kts 25°
2026-04-25 16:58 -24.85406 -46.78937 21914 ft 384 kts 25°
2026-04-25 16:59 -24.83150 -46.77454 21461 ft 371 kts 25°
2026-04-25 16:59 -24.80955 -46.76020 21026 ft 365 kts 25°
2026-04-25 16:59 -24.78760 -46.74596 20583 ft 365 kts 25°
2026-04-25 16:59 -24.76571 -46.73178 20152 ft 365 kts 25°
2026-04-25 17:00 -24.74377 -46.71756 19714 ft 365 kts 25°
2026-04-25 17:00 -24.72198 -46.70341 19294 ft 364 kts 26°
2026-04-25 17:00 -24.70015 -46.68920 18862 ft 365 kts 26°
2026-04-25 17:00 -24.67832 -46.67499 18435 ft 365 kts 26°
2026-04-25 17:01 -24.65658 -46.66084 17967 ft 359 kts 26°
2026-04-25 17:01 -24.63538 -46.64700 17539 ft 348 kts 26°
2026-04-25 17:01 -24.61454 -46.63461 17146 ft 333 kts 18°
2026-04-25 17:01 -24.59297 -46.62732 16782 ft 319 kts
2026-04-25 17:02 -24.57056 -46.62525 16468 ft 326 kts 354°
2026-04-25 17:02 -24.54777 -46.62545 16137 ft 328 kts 355°
2026-04-25 17:02 -24.52492 -46.62553 15807 ft 328 kts 355°
2026-04-25 17:02 -24.50205 -46.62556 15477 ft 328 kts 356°
2026-04-25 17:03 -24.47956 -46.62557 15155 ft 327 kts 356°
2026-04-25 17:03 -24.45687 -46.62558 14824 ft 325 kts 356°
2026-04-25 17:03 -24.43431 -46.62558 14514 ft 324 kts 356°
2026-04-25 17:03 -24.41170 -46.62559 14183 ft 323 kts 357°
2026-04-25 17:04 -24.38919 -46.62560 13862 ft 323 kts 357°
2026-04-25 17:04 -24.36684 -46.62564 13507 ft 322 kts 357°
2026-04-25 17:04 -24.34452 -46.62568 13170 ft 320 kts 357°
2026-04-25 17:04 -24.32230 -46.62569 12842 ft 318 kts 357°
2026-04-25 17:05 -24.30028 -46.62569 12516 ft 315 kts 357°
2026-04-25 17:05 -24.25670 -46.62568 11858 ft 311 kts 358°
2026-04-25 17:05 -24.23515 -46.62568 11547 ft 309 kts 358°
2026-04-25 17:06 -24.21376 -46.62570 11231 ft 306 kts 358°
2026-04-25 17:06 -24.19252 -46.62573 10925 ft 304 kts 358°
2026-04-25 17:06 -24.17139 -46.62576 10611 ft 302 kts 358°
2026-04-25 17:06 -24.15046 -46.62579 10300 ft 300 kts 358°
2026-04-25 17:07 -24.12969 -46.62583 9994 ft 297 kts 358°
2026-04-25 17:07 -24.10908 -46.62583 9683 ft 295 kts 358°
2026-04-25 17:07 -24.08866 -46.62582 9365 ft 292 kts 358°
2026-04-25 17:07 -24.06837 -46.62582 9061 ft 290 kts 358°
2026-04-25 17:08 -24.04852 -46.62585 8765 ft 288 kts 358°
2026-04-25 17:08 -24.02830 -46.62587 8469 ft 287 kts 358°
2026-04-25 17:08 -24.00837 -46.62587 8225 ft 287 kts 357°
2026-04-25 17:08 -23.98863 -46.62589 7846 ft 288 kts 357°
2026-04-25 17:09 -23.96864 -46.62589 7490 ft 286 kts 356°
2026-04-25 17:09 -23.94888 -46.62590 7189 ft 282 kts 356°
2026-04-25 17:09 -23.92932 -46.62593 6909 ft 280 kts 356°
2026-04-25 17:09 -23.90989 -46.62593 6623 ft 278 kts 356°
2026-04-25 17:10 -23.89069 -46.62594 6381 ft 274 kts 356°
2026-04-25 17:10 -23.87187 -46.62437 6094 ft 271 kts 10°
2026-04-25 17:10 -23.85462 -46.61680 5914 ft 265 kts 28°
2026-04-25 17:10 -23.84062 -46.60405 5751 ft 260 kts 47°
2026-04-25 17:11 -23.82955 -46.58882 5599 ft 251 kts 49°
2026-04-25 17:11 -23.81890 -46.57411 5479 ft 242 kts 48°
2026-04-25 17:11 -23.80858 -46.55997 5363 ft 233 kts 46°
2026-04-25 17:11 -23.79610 -46.55038 5274 ft 211 kts 13°
2026-04-25 17:12 -23.78234 -46.55006 5116 ft 191 kts 336°
2026-04-25 17:12 -23.77123 -46.55679 4963 ft 177 kts 324°
2026-04-25 17:12 -23.76108 -46.56351 4848 ft 164 kts 323°
2026-04-25 17:12 -23.75187 -46.56976 4744 ft 149 kts 322°
2026-04-25 17:13 -23.74333 -46.57564 4628 ft 142 kts 321°
2026-04-25 17:13 -23.74064 -46.57750 4596 ft 141 kts 322°
2026-04-25 17:13 -23.72689 -46.58703 4421 ft 138 kts 322°
2026-04-25 17:13 -23.71883 -46.59262 4398 ft 137 kts 322°
2026-04-25 17:14 -23.71080 -46.59819 4299 ft 138 kts 322°
2026-04-25 17:14 -23.70544 -46.60190 4213 ft 137 kts 322°
2026-04-25 17:14 -23.69740 -46.60742 4067 ft 136 kts 322°
2026-04-25 17:14 -23.68676 -46.61465 3809 ft 135 kts 321°
2026-04-25 17:15 -23.68136 -46.61828 3697 ft 135 kts 321°
2026-04-25 17:15 -23.67083 -46.62558 3421 ft 136 kts 320°
2026-04-25 17:15 -23.66307 -46.63127 3276 ft 135 kts 325°
2026-04-25 17:15 -23.65764 -46.63489 3170 ft 135 kts 325°
2026-04-25 17:16 -23.64983 -46.64042 2997 ft 134 kts 325°
2026-04-25 17:16 -23.64193 -46.64585 2813 ft 135 kts 326°
2026-04-25 17:16 -23.63399 -46.65135 2636 ft 135 kts 327°
2026-04-25 17:16 -23.62714 -46.65613 2607 ft 84 kts 328°
2026-04-25 17:17 -23.62444 -46.65797 2604 ft 28 kts 328°
2026-04-25 17:17 -23.62284 -46.65907 2600 ft 18 kts 327°
2026-04-25 17:17 -23.62205 -46.65968 2599 ft 11 kts 312°
2026-04-25 17:17 -23.62216 -46.66030 2599 ft 2 kts 227°
2026-04-25 17:18 -23.62220 -46.66034 2599 ft 0 kts 227°
2026-04-25 17:18 -23.62221 -46.66036 2599 ft 2 kts 227°
2026-04-25 17:18 -23.62232 -46.66042 2600 ft 3 kts 204°
2026-04-25 17:18 -23.62270 -46.66044 2600 ft 7 kts 175°
2026-04-25 17:19 -23.62316 -46.66038 2600 ft 7 kts 169°
2026-04-25 17:19 -23.62360 -46.66014 2600 ft 8 kts 147°
2026-04-25 17:19 -23.62409 -46.65980 2600 ft 8 kts 147°
2026-04-25 17:19 -23.62452 -46.65952 2600 ft 4 kts 164°
2026-04-25 17:20 -23.62471 -46.65972 2600 ft 3 kts 234°
2026-04-25 17:20 -23.62481 -46.65987 2600 ft 2 kts 236°
2026-04-25 17:20 -23.62481 -46.65988 2600 ft 0 kts 236°